Time,TemperatureF,DewpointF,PressureIn,WindDirection,WindDirectionDegrees,WindSpeedMPH,WindSpeedGustMPH,Humidity,HourlyPrecipIn,Conditions,Clouds,dailyrainin,SoftwareType,DateUTC
2013-01-10 00:01:00,34.3,29.1,29.99,South,177,9.0,9.0,81,0.00,,,0.10,Wunderground v.1.15,2013-01-10 05:01:00,
2013-01-10 00:02:00,34.2,29.3,29.99,WSW,256,5.0,9.0,82,0.00,,,0.10,Wunderground v.1.15,2013-01-10 05:02:00,
2013-01-10 00:04:00,33.9,29.6,30.00,West,276,7.0,9.0,84,0.00,,,0.10,Wunderground v.1.15,2013-01-10 05:04:00,
2013-01-10 00:09:00,33.0,30.1,30.00,WNW,288,11.0,11.0,89,0.00,,,0.10,Wunderground v.1.15,2013-01-10 05:09:00,
2013-01-10 00:12:00,32.6,30.0,30.00,NW,318,3.0,11.0,90,0.00,,,0.10,Wunderground v.1.15,2013-01-10 05:12:00,
2013-01-10 00:17:00,32.3,30.2,30.00,NW,312,5.0,14.0,92,0.00,,,0.10,Wunderground v.1.15,2013-01-10 05:17:00,
2013-01-10 00:23:00,32.1,30.3,30.00,NW,323,3.0,7.0,93,0.00,,,0.10,Wunderground v.1.15,2013-01-10 05:23:00,
2013-01-10 00:29:00,32.0,29.9,30.01,NW,314,4.0,6.0,92,0.00,,,0.10,Wunderground v.1.15,2013-01-10 05:29:00,
2013-01-10 00:34:00,32.1,30.0,30.02,NW,304,4.0,14.0,92,0.00,,,0.10,Wunderground v.1.15,2013-01-10 05:34:00,
2013-01-10 00:39:00,32.2,29.6,30.02,WNW,287,5.0,6.0,90,0.00,,,0.00,Wunderground v.1.15,2013-01-10 05:39:00,
2013-01-10 00:44:00,32.4,29.5,30.02,WNW,297,13.0,13.0,89,0.00,,,0.00,Wunderground v.1.15,2013-01-10 05:44:00,
2013-01-10 00:50:00,32.5,29.3,30.03,NNW,344,4.0,7.0,88,0.00,,,0.00,Wunderground v.1.15,2013-01-10 05:50:00,
2013-01-10 00:56:00,32.6,28.9,30.03,NW,326,2.0,12.0,86,0.00,,,0.00,Wunderground v.1.15,2013-01-10 05:56:00,
2013-01-10 01:01:00,32.7,28.4,30.03,West,269,12.0,12.0,84,0.00,,,0.00,Wunderground v.1.15,2013-01-10 06:01:00,
2013-01-10 01:07:00,32.8,28.5,30.04,West,280,6.0,12.0,84,0.00,,,0.00,Wunderground v.1.15,2013-01-10 06:07:00,
2013-01-10 01:13:00,32.9,28.3,30.05,NW,308,5.0,9.0,83,0.00,,,0.00,Wunderground v.1.15,2013-01-10 06:13:00,
2013-01-10 01:18:00,33.0,28.1,30.05,WSW,246,10.0,12.0,82,0.00,,,0.00,Wunderground v.1.15,2013-01-10 06:18:00,
2013-01-10 01:24:00,33.1,27.9,30.05,West,277,5.0,16.0,81,0.00,,,0.00,Wunderground v.1.15,2013-01-10 06:24:00,
2013-01-10 01:30:00,33.1,27.6,30.06,NW,311,7.0,8.0,80,0.00,,,0.00,Wunderground v.1.15,2013-01-10 06:30:00,
2013-01-10 01:36:00,33.4,27.3,30.07,SSW,205,7.0,12.0,78,0.00,,,0.00,Wunderground v.1.15,2013-01-10 06:36:00,
2013-01-10 01:41:00,33.4,26.6,30.06,WSW,255,7.0,13.0,76,0.00,,,0.00,Wunderground v.1.15,2013-01-10 06:41:00,
2013-01-10 01:47:00,33.6,26.5,30.07,WSW,247,4.0,18.0,75,0.00,,,0.00,Wunderground v.1.15,2013-01-10 06:47:00,
2013-01-10 01:52:00,33.6,26.8,30.07,NW,318,13.0,13.0,76,0.00,,,0.00,Wunderground v.1.15,2013-01-10 06:52:00,
2013-01-10 01:58:00,32.7,27.5,30.08,NNW,339,9.0,22.0,81,0.00,,,0.00,Wunderground v.1.15,2013-01-10 06:58:00,
2013-01-10 02:03:00,32.8,27.0,30.08,West,277,21.0,25.0,79,0.00,,,0.00,Wunderground v.1.15,2013-01-10 07:03:00,
2013-01-10 02:09:00,32.9,27.4,30.08,WNW,291,8.0,10.0,80,0.00,,,0.00,Wunderground v.1.15,2013-01-10 07:09:00,
2013-01-10 02:14:00,32.5,27.9,30.09,NW,323,6.0,20.0,83,0.00,,,0.00,Wunderground v.1.15,2013-01-10 07:14:00,
2013-01-10 02:19:00,32.2,27.6,30.09,West,259,8.0,9.0,83,0.00,,,0.00,Wunderground v.1.15,2013-01-10 07:19:00,
2013-01-10 02:24:00,32.1,27.8,30.09,NW,312,10.0,12.0,84,0.00,,,0.00,Wunderground v.1.15,2013-01-10 07:24:00,
2013-01-10 02:29:00,31.9,27.6,30.09,NW,309,8.0,9.0,84,0.00,,,0.00,Wunderground v.1.15,2013-01-10 07:29:00,
2013-01-10 02:34:00,32.0,27.1,30.09,NW,308,20.0,20.0,82,0.00,,,0.00,Wunderground v.1.15,2013-01-10 07:34:00,
2013-01-10 02:39:00,32.2,27.0,30.09,NNW,338,15.0,15.0,81,0.00,,,0.00,Wunderground v.1.15,2013-01-10 07:39:00,
2013-01-10 02:44:00,32.3,26.5,30.10,West,270,14.0,17.0,79,0.00,,,0.00,Wunderground v.1.15,2013-01-10 07:44:00,
2013-01-10 02:49:00,32.5,26.4,30.10,West,280,7.0,10.0,78,0.00,,,0.00,Wunderground v.1.15,2013-01-10 07:49:00,
2013-01-10 02:54:00,32.7,26.0,30.10,NW,311,10.0,19.0,76,0.00,,,0.00,Wunderground v.1.15,2013-01-10 07:54:00,
2013-01-10 02:59:00,32.7,26.0,30.11,WNW,301,10.0,14.0,76,0.00,,,0.00,Wunderground v.1.15,2013-01-10 07:59:00,
2013-01-10 03:04:00,32.7,25.6,30.11,WNW,285,9.0,11.0,75,0.00,,,0.00,Wunderground v.1.15,2013-01-10 08:04:00,
2013-01-10 03:09:00,32.8,25.4,30.12,NW,304,4.0,8.0,74,0.00,,,0.00,Wunderground v.1.15,2013-01-10 08:09:00,
2013-01-10 03:14:00,32.9,25.5,30.13,NW,314,6.0,16.0,74,0.00,,,0.00,Wunderground v.1.15,2013-01-10 08:14:00,
2013-01-10 03:19:00,33.0,25.3,30.14,SW,231,3.0,10.0,73,0.00,,,0.00,Wunderground v.1.15,2013-01-10 08:19:00,
2013-01-10 03:24:00,33.1,25.1,30.13,NW,322,11.0,24.0,72,0.00,,,0.00,Wunderground v.1.15,2013-01-10 08:24:00,
2013-01-10 03:29:00,33.0,25.0,30.14,NW,316,5.0,11.0,72,0.00,,,0.00,Wunderground v.1.15,2013-01-10 08:29:00,
2013-01-10 03:34:00,32.9,24.9,30.14,NW,319,4.0,18.0,72,0.00,,,0.00,Wunderground v.1.15,2013-01-10 08:34:00,
2013-01-10 03:39:00,32.8,24.4,30.14,NW,318,6.0,15.0,71,0.00,,,0.00,Wunderground v.1.15,2013-01-10 08:39:00,
2013-01-10 03:44:00,32.7,24.3,30.14,WSW,255,4.0,15.0,71,0.00,,,0.00,Wunderground v.1.15,2013-01-10 08:44:00,
2013-01-10 03:49:00,32.6,23.9,30.14,NNW,330,18.0,18.0,70,0.00,,,0.00,Wunderground v.1.15,2013-01-10 08:49:00,
2013-01-10 03:54:00,32.5,23.8,30.14,NW,326,14.0,24.0,70,0.00,,,0.00,Wunderground v.1.15,2013-01-10 08:54:00,
2013-01-10 03:59:00,32.5,23.8,30.15,NW,308,8.0,10.0,70,0.00,,,0.00,Wunderground v.1.15,2013-01-10 08:59:00,
2013-01-10 04:04:00,32.4,24.0,30.16,WNW,284,10.0,17.0,71,0.00,,,0.00,Wunderground v.1.15,2013-01-10 09:04:00,
2013-01-10 04:09:00,32.1,23.8,30.16,SSE,166,5.0,15.0,71,0.00,,,0.00,Wunderground v.1.15,2013-01-10 09:09:00,
2013-01-10 04:14:00,32.2,23.8,30.16,NW,313,5.0,16.0,71,0.00,,,0.00,Wunderground v.1.15,2013-01-10 09:14:00,
2013-01-10 04:19:00,32.1,23.8,30.17,NNW,338,6.0,8.0,71,0.00,,,0.00,Wunderground v.1.15,2013-01-10 09:19:00,
2013-01-10 04:24:00,32.1,24.1,30.17,West,280,4.0,12.0,72,0.00,,,0.00,Wunderground v.1.15,2013-01-10 09:24:00,
2013-01-10 04:29:00,32.1,23.8,30.17,WSW,251,12.0,12.0,71,0.00,,,0.00,Wunderground v.1.15,2013-01-10 09:29:00,
2013-01-10 04:34:00,32.1,23.8,30.17,West,263,7.0,14.0,71,0.00,,,0.00,Wunderground v.1.15,2013-01-10 09:34:00,
2013-01-10 04:39:00,32.1,23.8,30.18,SW,233,3.0,9.0,71,0.00,,,0.00,Wunderground v.1.15,2013-01-10 09:39:00,
2013-01-10 04:45:00,32.1,23.8,30.18,WNW,295,5.0,11.0,71,0.00,,,0.00,Wunderground v.1.15,2013-01-10 09:45:00,
2013-01-10 04:50:00,32.0,23.7,30.19,NW,311,2.0,7.0,71,0.00,,,0.00,Wunderground v.1.15,2013-01-10 09:50:00,
2013-01-10 04:55:00,32.0,23.7,30.19,West,280,7.0,13.0,71,0.00,,,0.00,Wunderground v.1.15,2013-01-10 09:55:00,
2013-01-10 05:00:00,32.0,23.3,30.18,NW,304,12.0,12.0,70,0.00,,,0.00,Wunderground v.1.15,2013-01-10 10:00:00,
2013-01-10 05:05:00,32.0,23.3,30.19,West,262,7.0,15.0,70,0.00,,,0.00,Wunderground v.1.15,2013-01-10 10:05:00,
2013-01-10 05:10:00,31.9,23.2,30.18,West,280,6.0,6.0,70,0.00,,,0.00,Wunderground v.1.15,2013-01-10 10:10:00,
2013-01-10 05:15:00,31.8,23.1,30.18,NNW,328,6.0,8.0,70,0.00,,,0.00,Wunderground v.1.15,2013-01-10 10:15:00,
2013-01-10 05:20:00,31.7,23.0,30.19,NW,309,4.0,7.0,70,0.00,,,0.00,Wunderground v.1.15,2013-01-10 10:20:00,
2013-01-10 05:25:00,31.6,22.9,30.18,WNW,299,3.0,7.0,70,0.00,,,0.00,Wunderground v.1.15,2013-01-10 10:25:00,
2013-01-10 05:30:00,31.7,23.0,30.20,West,280,8.0,15.0,70,0.00,,,0.00,Wunderground v.1.15,2013-01-10 10:30:00,
2013-01-10 05:35:00,31.7,23.4,30.20,NW,314,2.0,15.0,71,0.00,,,0.00,Wunderground v.1.15,2013-01-10 10:35:00,
2013-01-10 05:40:00,31.7,23.0,30.21,West,266,12.0,12.0,70,0.00,,,0.00,Wunderground v.1.15,2013-01-10 10:40:00,
2013-01-10 05:45:00,31.8,23.1,30.21,NNW,339,7.0,17.0,70,0.00,,,0.00,Wunderground v.1.15,2013-01-10 10:45:00,
2013-01-10 05:50:00,31.7,23.0,30.21,WNW,299,3.0,10.0,70,0.00,,,0.00,Wunderground v.1.15,2013-01-10 10:50:00,
2013-01-10 05:55:00,31.6,22.9,30.22,NW,306,5.0,10.0,70,0.00,,,0.00,Wunderground v.1.15,2013-01-10 10:55:00,
2013-01-10 06:00:00,31.4,23.1,30.22,WNW,289,2.0,5.0,71,0.00,,,0.00,Wunderground v.1.15,2013-01-10 11:00:00,
2013-01-10 06:05:00,31.3,22.6,30.22,West,270,4.0,8.0,70,0.00,,,0.00,Wunderground v.1.15,2013-01-10 11:05:00,
2013-01-10 06:10:00,31.3,22.6,30.23,WNW,283,5.0,8.0,70,0.00,,,0.00,Wunderground v.1.15,2013-01-10 11:10:00,
2013-01-10 06:15:00,31.2,22.5,30.23,NW,312,5.0,11.0,70,0.00,,,0.00,Wunderground v.1.15,2013-01-10 11:15:00,
2013-01-10 06:20:00,30.9,22.3,30.23,NW,309,8.0,10.0,70,0.00,,,0.00,Wunderground v.1.15,2013-01-10 11:20:00,
2013-01-10 06:25:00,30.7,22.1,30.23,NW,308,5.0,13.0,70,0.00,,,0.00,Wunderground v.1.15,2013-01-10 11:25:00,
2013-01-10 06:31:00,30.3,21.7,30.24,NW,309,0.0,6.0,70,0.00,,,0.00,Wunderground v.1.15,2013-01-10 11:31:00,
2013-01-10 06:36:00,30.3,21.7,30.25,NW,304,4.0,12.0,70,0.00,,,0.00,Wunderground v.1.15,2013-01-10 11:36:00,
2013-01-10 06:41:00,30.3,21.7,30.25,West,259,5.0,8.0,70,0.00,,,0.00,Wunderground v.1.15,2013-01-10 11:41:00,
2013-01-10 06:46:00,30.2,21.9,30.25,West,270,5.0,8.0,71,0.00,,,0.00,Wunderground v.1.15,2013-01-10 11:46:00,
2013-01-10 06:51:00,30.0,21.7,30.26,NW,325,4.0,6.0,71,0.00,,,0.00,Wunderground v.1.15,2013-01-10 11:51:00,
2013-01-10 06:56:00,29.9,22.0,30.27,West,276,7.0,11.0,72,0.00,,,0.00,Wunderground v.1.15,2013-01-10 11:56:00,
2013-01-10 07:01:00,29.8,21.5,30.27,WNW,292,4.0,5.0,71,0.00,,,0.00,Wunderground v.1.15,2013-01-10 12:01:00,
2013-01-10 07:06:00,29.8,21.5,30.27,NW,315,5.0,9.0,71,0.00,,,0.00,Wunderground v.1.15,2013-01-10 12:06:00,
2013-01-10 07:11:00,29.8,21.5,30.27,West,264,6.0,10.0,71,0.00,,,0.00,Wunderground v.1.15,2013-01-10 12:11:00,
2013-01-10 07:16:00,29.7,21.4,30.28,WNW,285,8.0,12.0,71,0.00,,,0.00,Wunderground v.1.15,2013-01-10 12:16:00,
2013-01-10 07:21:00,30.0,21.7,30.28,South,172,3.0,13.0,71,0.00,,,0.00,Wunderground v.1.15,2013-01-10 12:21:00,
2013-01-10 07:26:00,30.1,21.5,30.28,SW,234,3.0,14.0,70,0.00,,,0.00,Wunderground v.1.15,2013-01-10 12:26:00,
2013-01-10 07:31:00,30.1,21.5,30.28,SW,218,7.0,9.0,70,0.00,,,0.00,Wunderground v.1.15,2013-01-10 12:31:00,
2013-01-10 07:36:00,29.9,21.6,30.29,NW,312,5.0,11.0,71,0.00,,,0.00,Wunderground v.1.15,2013-01-10 12:36:00,
2013-01-10 07:41:00,29.8,21.5,30.29,West,263,5.0,9.0,71,0.00,,,0.00,Wunderground v.1.15,2013-01-10 12:41:00,
2013-01-10 07:46:00,29.9,21.6,30.29,West,266,12.0,12.0,71,0.00,,,0.00,Wunderground v.1.15,2013-01-10 12:46:00,
2013-01-10 07:51:00,30.1,21.8,30.30,WNW,297,2.0,10.0,71,0.00,,,0.00,Wunderground v.1.15,2013-01-10 12:51:00,
2013-01-10 07:56:00,30.6,22.3,30.30,WSW,249,7.0,13.0,71,0.00,,,0.00,Wunderground v.1.15,2013-01-10 12:56:00,
2013-01-10 08:01:00,30.9,22.3,30.30,West,273,5.0,11.0,70,0.00,,,0.00,Wunderground v.1.15,2013-01-10 13:01:00,
2013-01-10 08:06:00,30.8,22.2,30.30,WSW,256,4.0,11.0,70,0.00,,,0.00,Wunderground v.1.15,2013-01-10 13:06:00,
2013-01-10 08:11:00,30.5,22.2,30.30,NW,311,4.0,13.0,71,0.00,,,0.00,Wunderground v.1.15,2013-01-10 13:11:00,
2013-01-10 08:16:00,30.2,22.3,30.31,WNW,287,6.0,13.0,72,0.00,,,0.00,Wunderground v.1.15,2013-01-10 13:16:00,
2013-01-10 08:21:00,30.0,22.1,30.30,NW,304,3.0,6.0,72,0.00,,,0.00,Wunderground v.1.15,2013-01-10 13:21:00,
2013-01-10 08:26:00,30.0,22.1,30.31,West,274,4.0,9.0,72,0.00,,,0.00,Wunderground v.1.15,2013-01-10 13:26:00,
2013-01-10 08:31:00,29.9,22.0,30.31,SE,128,1.0,10.0,72,0.00,,,0.00,Wunderground v.1.15,2013-01-10 13:31:00,
2013-01-10 08:36:00,30.1,22.2,30.31,West,267,4.0,12.0,72,0.00,,,0.00,Wunderground v.1.15,2013-01-10 13:36:00,
2013-01-10 08:41:00,30.7,22.4,30.31,NW,308,5.0,14.0,71,0.00,,,0.00,Wunderground v.1.15,2013-01-10 13:41:00,
2013-01-10 08:46:00,31.3,22.6,30.32,North,351,1.0,14.0,70,0.00,,,0.00,Wunderground v.1.15,2013-01-10 13:46:00,
2013-01-10 08:51:00,32.0,23.0,30.32,NW,319,4.0,6.0,69,0.00,,,0.00,Wunderground v.1.15,2013-01-10 13:51:00,
2013-01-10 08:56:00,32.3,22.6,30.32,WNW,302,11.0,12.0,67,0.00,,,0.00,Wunderground v.1.15,2013-01-10 13:56:00,
2013-01-10 09:01:00,32.3,22.9,30.32,NW,309,4.0,8.0,68,0.00,,,0.00,Wunderground v.1.15,2013-01-10 14:01:00,
2013-01-10 09:06:00,32.4,22.7,30.33,NW,304,4.0,14.0,67,0.00,,,0.00,Wunderground v.1.15,2013-01-10 14:06:00,
2013-01-10 09:11:00,32.3,22.9,30.34,NW,314,3.0,10.0,68,0.00,,,0.00,Wunderground v.1.15,2013-01-10 14:11:00,
2013-01-10 09:17:00,32.5,23.1,30.34,West,278,3.0,10.0,68,0.00,,,0.00,Wunderground v.1.15,2013-01-10 14:17:00,
2013-01-10 09:22:00,32.9,23.1,30.33,West,269,5.0,6.0,67,0.00,,,0.00,Wunderground v.1.15,2013-01-10 14:22:00,
2013-01-10 09:27:00,33.1,23.3,30.33,WNW,301,3.0,8.0,67,0.00,,,0.00,Wunderground v.1.15,2013-01-10 14:27:00,
2013-01-10 09:32:00,33.3,23.5,30.34,WNW,285,2.0,7.0,67,0.00,,,0.00,Wunderground v.1.15,2013-01-10 14:32:00,
2013-01-10 09:37:00,33.5,23.4,30.34,NW,321,3.0,8.0,66,0.00,,,0.00,Wunderground v.1.15,2013-01-10 14:37:00,
2013-01-10 09:42:00,33.4,23.3,30.34,NW,323,5.0,11.0,66,0.00,,,0.00,Wunderground v.1.15,2013-01-10 14:42:00,
2013-01-10 09:47:00,33.6,23.4,30.34,SW,233,3.0,11.0,66,0.00,,,0.00,Wunderground v.1.15,2013-01-10 14:47:00,
2013-01-10 09:52:00,33.7,23.5,30.35,NW,310,5.0,11.0,66,0.00,,,0.00,Wunderground v.1.15,2013-01-10 14:52:00,
2013-01-10 09:58:00,33.7,23.2,30.35,West,281,8.0,14.0,65,0.00,,,0.00,Wunderground v.1.15,2013-01-10 14:58:00,
2013-01-10 10:03:00,33.5,23.0,30.35,NW,323,4.0,12.0,65,0.00,,,0.00,Wunderground v.1.15,2013-01-10 15:03:00,
2013-01-10 10:08:00,33.7,23.5,30.36,NW,322,5.0,13.0,66,0.00,,,0.00,Wunderground v.1.15,2013-01-10 15:08:00,
2013-01-10 10:13:00,33.9,23.4,30.35,NW,312,5.0,12.0,65,0.00,,,0.00,Wunderground v.1.15,2013-01-10 15:13:00,
2013-01-10 10:18:00,33.8,23.3,30.35,NW,318,8.0,15.0,65,0.00,,,0.00,Wunderground v.1.15,2013-01-10 15:18:00,
2013-01-10 10:23:00,33.9,23.4,30.35,NW,305,3.0,13.0,65,0.00,,,0.00,Wunderground v.1.15,2013-01-10 15:23:00,
2013-01-10 10:28:00,33.7,23.5,30.35,WNW,292,7.0,13.0,66,0.00,,,0.00,Wunderground v.1.15,2013-01-10 15:28:00,
2013-01-10 10:33:00,33.6,23.4,30.35,NW,307,6.0,15.0,66,0.00,,,0.00,Wunderground v.1.15,2013-01-10 15:33:00,
2013-01-10 10:39:00,33.9,23.7,30.35,NNW,328,8.0,9.0,66,0.00,,,0.00,Wunderground v.1.15,2013-01-10 15:39:00,
2013-01-10 10:44:00,34.2,24.0,30.35,NW,319,13.0,18.0,66,0.00,,,0.00,Wunderground v.1.15,2013-01-10 15:44:00,
2013-01-10 10:49:00,34.3,23.7,30.34,NNW,345,6.0,11.0,65,0.00,,,0.00,Wunderground v.1.15,2013-01-10 15:49:00,
2013-01-10 10:54:00,34.4,23.8,30.34,NW,322,9.0,17.0,65,0.00,,,0.00,Wunderground v.1.15,2013-01-10 15:54:00,
2013-01-10 10:59:00,34.4,23.8,30.34,NW,312,13.0,13.0,65,0.00,,,0.00,Wunderground v.1.15,2013-01-10 15:59:00,
2013-01-10 11:04:00,34.1,23.2,30.34,North,350,14.0,17.0,64,0.00,,,0.00,Wunderground v.1.15,2013-01-10 16:04:00,
2013-01-10 11:09:00,34.0,23.5,30.34,West,274,9.0,16.0,65,0.00,,,0.00,Wunderground v.1.15,2013-01-10 16:09:00,
2013-01-10 11:14:00,34.2,23.7,30.34,WNW,283,13.0,23.0,65,0.00,,,0.00,Wunderground v.1.15,2013-01-10 16:14:00,
2013-01-10 11:19:00,33.5,23.0,30.34,NW,318,11.0,11.0,65,0.00,,,0.00,Wunderground v.1.15,2013-01-10 16:19:00,
2013-01-10 11:24:00,33.6,23.1,30.34,WNW,284,10.0,15.0,65,0.00,,,0.00,Wunderground v.1.15,2013-01-10 16:24:00,
2013-01-10 11:29:00,33.8,22.9,30.33,SW,231,4.0,7.0,64,0.00,,,0.00,Wunderground v.1.15,2013-01-10 16:29:00,
2013-01-10 11:34:00,33.7,22.8,30.33,WNW,298,8.0,19.0,64,0.00,,,0.00,Wunderground v.1.15,2013-01-10 16:34:00,
2013-01-10 11:39:00,33.5,22.6,30.33,SW,235,6.0,9.0,64,0.00,,,0.00,Wunderground v.1.15,2013-01-10 16:39:00,
2013-01-10 11:44:00,33.5,22.6,30.33,North,355,4.0,15.0,64,0.00,,,0.00,Wunderground v.1.15,2013-01-10 16:44:00,
2013-01-10 11:49:00,33.8,22.5,30.33,WNW,302,9.0,9.0,63,0.00,,,0.00,Wunderground v.1.15,2013-01-10 16:49:00,
2013-01-10 11:54:00,33.6,22.3,30.33,West,271,5.0,16.0,63,0.00,,,0.00,Wunderground v.1.15,2013-01-10 16:54:00,
2013-01-10 11:59:00,33.9,22.6,30.34,West,263,6.0,8.0,63,0.00,,,0.00,Wunderground v.1.15,2013-01-10 16:59:00,
2013-01-10 12:04:00,34.1,22.8,30.34,WNW,285,6.0,12.0,63,0.00,,,0.00,Wunderground v.1.15,2013-01-10 17:04:00,
2013-01-10 12:09:00,34.3,23.0,30.34,NW,321,1.0,7.0,63,0.00,,,0.00,Wunderground v.1.15,2013-01-10 17:09:00,
2013-01-10 12:14:00,34.5,22.8,30.34,NNW,330,4.0,12.0,62,0.00,,,0.00,Wunderground v.1.15,2013-01-10 17:14:00,
2013-01-10 12:19:00,34.8,22.7,30.35,NW,308,5.0,8.0,61,0.00,,,0.00,Wunderground v.1.15,2013-01-10 17:19:00,
2013-01-10 12:24:00,35.3,23.6,30.35,West,270,1.0,8.0,62,0.00,,,0.00,Wunderground v.1.15,2013-01-10 17:24:00,
2013-01-10 12:29:00,36.2,23.6,30.35,NW,311,5.0,5.0,60,0.00,,,0.00,Wunderground v.1.15,2013-01-10 17:29:00,
2013-01-10 12:34:00,36.5,23.5,30.36,West,278,6.0,9.0,59,0.00,,,0.00,Wunderground v.1.15,2013-01-10 17:34:00,
2013-01-10 12:39:00,36.1,23.1,30.36,NW,318,4.0,6.0,59,0.00,,,0.00,Wunderground v.1.15,2013-01-10 17:39:00,
2013-01-10 12:44:00,35.9,23.4,30.36,NW,312,10.0,13.0,60,0.00,,,0.00,Wunderground v.1.15,2013-01-10 17:44:00,
2013-01-10 12:49:00,35.5,23.0,30.36,NW,309,8.0,9.0,60,0.00,,,0.00,Wunderground v.1.15,2013-01-10 17:49:00,
2013-01-10 12:54:00,35.5,23.0,30.36,WNW,290,9.0,14.0,60,0.00,,,0.00,Wunderground v.1.15,2013-01-10 17:54:00,
2013-01-10 12:59:00,35.6,23.1,30.36,NW,308,16.0,16.0,60,0.00,,,0.00,Wunderground v.1.15,2013-01-10 17:59:00,
2013-01-10 13:04:00,35.4,23.3,30.36,WNW,299,12.0,14.0,61,0.00,,,0.00,Wunderground v.1.15,2013-01-10 18:04:00,
2013-01-10 13:09:00,35.2,22.7,30.36,NW,311,12.0,12.0,60,0.00,,,0.00,Wunderground v.1.15,2013-01-10 18:09:00,
2013-01-10 13:14:00,35.3,23.2,30.36,NNE,23,11.0,12.0,61,0.00,,,0.00,Wunderground v.1.15,2013-01-10 18:14:00,
2013-01-10 13:19:00,35.3,23.2,30.36,NW,310,10.0,10.0,61,0.00,,,0.00,Wunderground v.1.15,2013-01-10 18:19:00,
2013-01-10 13:24:00,35.5,23.8,30.36,NW,314,6.0,10.0,62,0.00,,,0.00,Wunderground v.1.15,2013-01-10 18:24:00,
2013-01-10 13:29:00,35.1,23.0,30.36,West,273,9.0,12.0,61,0.00,,,0.00,Wunderground v.1.15,2013-01-10 18:29:00,
2013-01-10 13:34:00,35.1,23.4,30.36,WNW,299,5.0,17.0,62,0.00,,,0.00,Wunderground v.1.15,2013-01-10 18:34:00,
2013-01-10 13:39:00,35.4,23.7,30.36,NW,314,5.0,11.0,62,0.00,,,0.00,Wunderground v.1.15,2013-01-10 18:39:00,
2013-01-10 13:44:00,35.3,23.6,30.36,NW,326,9.0,14.0,62,0.00,,,0.00,Wunderground v.1.15,2013-01-10 18:44:00,
2013-01-10 13:49:00,35.1,23.4,30.37,North,355,7.0,8.0,62,0.00,,,0.00,Wunderground v.1.15,2013-01-10 18:49:00,
2013-01-10 13:54:00,35.2,23.9,30.37,NNW,328,10.0,14.0,63,0.00,,,0.00,Wunderground v.1.15,2013-01-10 18:54:00,
2013-01-10 14:00:00,35.0,23.3,30.37,NW,316,5.0,5.0,62,0.00,,,0.00,Wunderground v.1.15,2013-01-10 19:00:00,
2013-01-10 14:05:00,34.9,23.6,30.38,NNW,344,10.0,13.0,63,0.00,,,0.00,Wunderground v.1.15,2013-01-10 19:05:00,
2013-01-10 14:10:00,35.0,23.3,30.38,NW,318,7.0,9.0,62,0.00,,,0.00,Wunderground v.1.15,2013-01-10 19:10:00,
2013-01-10 14:15:00,35.1,23.4,30.38,WNW,284,6.0,13.0,62,0.00,,,0.00,Wunderground v.1.15,2013-01-10 19:15:00,
2013-01-10 14:20:00,35.0,23.3,30.38,NW,311,5.0,11.0,62,0.00,,,0.00,Wunderground v.1.15,2013-01-10 19:20:00,
2013-01-10 14:25:00,35.2,23.5,30.38,North,11,4.0,11.0,62,0.00,,,0.00,Wunderground v.1.15,2013-01-10 19:25:00,
2013-01-10 14:30:00,35.4,23.3,30.39,NW,311,4.0,7.0,61,0.00,,,0.00,Wunderground v.1.15,2013-01-10 19:30:00,
2013-01-10 14:35:00,35.4,23.7,30.39,NW,314,6.0,10.0,62,0.00,,,0.00,Wunderground v.1.15,2013-01-10 19:35:00,
2013-01-10 14:40:00,35.4,23.3,30.39,NW,311,9.0,9.0,61,0.00,,,0.00,Wunderground v.1.15,2013-01-10 19:40:00,
2013-01-10 14:45:00,35.2,23.5,30.39,West,278,13.0,13.0,62,0.00,,,0.00,Wunderground v.1.15,2013-01-10 19:45:00,
2013-01-10 14:51:00,35.0,23.7,30.39,NW,314,8.0,12.0,63,0.00,,,0.00,Wunderground v.1.15,2013-01-10 19:51:00,
2013-01-10 14:56:00,34.8,23.5,30.39,NW,310,8.0,16.0,63,0.00,,,0.00,Wunderground v.1.15,2013-01-10 19:56:00,
2013-01-10 15:01:00,34.8,23.9,30.39,WNW,282,7.0,9.0,64,0.00,,,0.00,Wunderground v.1.15,2013-01-10 20:01:00,
2013-01-10 15:06:00,34.9,23.6,30.39,WSW,242,4.0,11.0,63,0.00,,,0.00,Wunderground v.1.15,2013-01-10 20:06:00,
2013-01-10 15:11:00,34.9,23.6,30.39,WNW,295,8.0,14.0,63,0.00,,,0.00,Wunderground v.1.15,2013-01-10 20:11:00,
2013-01-10 15:16:00,34.8,23.5,30.40,NW,311,6.0,14.0,63,0.00,,,0.00,Wunderground v.1.15,2013-01-10 20:16:00,
2013-01-10 15:21:00,34.7,23.4,30.40,WSW,249,8.0,10.0,63,0.00,,,0.00,Wunderground v.1.15,2013-01-10 20:21:00,
2013-01-10 15:26:00,34.7,23.4,30.41,NW,308,7.0,14.0,63,0.00,,,0.00,Wunderground v.1.15,2013-01-10 20:26:00,
2013-01-10 15:31:00,34.5,23.2,30.40,NW,305,9.0,14.0,63,0.00,,,0.00,Wunderground v.1.15,2013-01-10 20:31:00,
2013-01-10 15:36:00,34.3,23.4,30.40,NNW,334,5.0,14.0,64,0.00,,,0.00,Wunderground v.1.15,2013-01-10 20:36:00,
2013-01-10 15:41:00,34.3,23.4,30.40,NW,311,7.0,11.0,64,0.00,,,0.00,Wunderground v.1.15,2013-01-10 20:41:00,
2013-01-10 15:46:00,34.1,23.2,30.40,NW,316,5.0,15.0,64,0.00,,,0.00,Wunderground v.1.15,2013-01-10 20:46:00,
2013-01-10 15:51:00,34.0,23.5,30.40,NW,325,3.0,8.0,65,0.00,,,0.00,Wunderground v.1.15,2013-01-10 20:51:00,
2013-01-10 15:56:00,33.8,23.3,30.41,WNW,299,5.0,8.0,65,0.00,,,0.00,Wunderground v.1.15,2013-01-10 20:56:00,
2013-01-10 16:01:00,33.7,23.2,30.41,NW,319,1.0,4.0,65,0.00,,,0.00,Wunderground v.1.15,2013-01-10 21:01:00,
2013-01-10 16:06:00,33.4,22.9,30.42,NW,318,5.0,7.0,65,0.00,,,0.00,Wunderground v.1.15,2013-01-10 21:06:00,
2013-01-10 16:11:00,32.9,22.8,30.41,NW,314,8.0,8.0,66,0.00,,,0.00,Wunderground v.1.15,2013-01-10 21:11:00,
2013-01-10 16:16:00,32.5,22.8,30.42,NNW,344,4.0,9.0,67,0.00,,,0.00,Wunderground v.1.15,2013-01-10 21:16:00,
2013-01-10 16:22:00,32.1,22.7,30.42,NW,307,3.0,9.0,68,0.00,,,0.00,Wunderground v.1.15,2013-01-10 21:22:00,
2013-01-10 16:27:00,31.9,22.5,30.42,North,5,3.0,10.0,68,0.00,,,0.00,Wunderground v.1.15,2013-01-10 21:27:00,
2013-01-10 16:32:00,31.7,22.7,30.43,NW,314,4.0,8.0,69,0.00,,,0.00,Wunderground v.1.15,2013-01-10 21:32:00,
2013-01-10 16:37:00,31.4,22.4,30.43,West,269,3.0,8.0,69,0.00,,,0.00,Wunderground v.1.15,2013-01-10 21:37:00,
2013-01-10 16:42:00,31.2,22.5,30.43,NW,315,2.0,6.0,70,0.00,,,0.00,Wunderground v.1.15,2013-01-10 21:42:00,
2013-01-10 16:47:00,31.0,22.4,30.43,NW,319,3.0,7.0,70,0.00,,,0.00,Wunderground v.1.15,2013-01-10 21:47:00,
2013-01-10 16:52:00,30.8,22.5,30.43,WNW,301,4.0,7.0,71,0.00,,,0.00,Wunderground v.1.15,2013-01-10 21:52:00,
2013-01-10 16:57:00,30.6,22.3,30.43,West,259,1.0,7.0,71,0.00,,,0.00,Wunderground v.1.15,2013-01-10 21:57:00,
2013-01-10 17:02:00,30.4,22.4,30.43,West,262,2.0,3.0,72,0.00,,,0.00,Wunderground v.1.15,2013-01-10 22:02:00,
2013-01-10 17:07:00,30.1,22.5,30.43,West,277,1.0,3.0,73,0.00,,,0.00,Wunderground v.1.15,2013-01-10 22:07:00,
2013-01-10 17:12:00,29.7,22.4,30.43,NW,309,2.0,4.0,74,0.00,,,0.00,Wunderground v.1.15,2013-01-10 22:12:00,
2013-01-10 17:17:00,29.5,22.2,30.43,NW,312,2.0,5.0,74,0.00,,,0.00,Wunderground v.1.15,2013-01-10 22:17:00,
2013-01-10 17:22:00,29.4,22.1,30.43,NW,308,4.0,5.0,74,0.00,,,0.00,Wunderground v.1.15,2013-01-10 22:22:00,
2013-01-10 17:27:00,29.2,22.3,30.43,WSW,250,0.0,5.0,75,0.00,,,0.00,Wunderground v.1.15,2013-01-10 22:27:00,
2013-01-10 17:32:00,29.0,22.1,30.44,NW,321,2.0,2.0,75,0.00,,,0.00,Wunderground v.1.15,2013-01-10 22:32:00,
2013-01-10 17:37:00,28.8,21.9,30.44,NNW,332,1.0,3.0,75,0.00,,,0.00,Wunderground v.1.15,2013-01-10 22:37:00,
2013-01-10 17:42:00,28.4,21.8,30.43,NW,323,1.0,2.0,76,0.00,,,0.00,Wunderground v.1.15,2013-01-10 22:42:00,
2013-01-10 17:47:00,28.3,22.0,30.43,ENE,58,0.0,2.0,77,0.00,,,0.00,Wunderground v.1.15,2013-01-10 22:47:00,
2013-01-10 17:52:00,28.0,21.7,30.43,NNE,29,0.0,0.0,77,0.00,,,0.00,Wunderground v.1.15,2013-01-10 22:52:00,
2013-01-10 17:57:00,27.7,21.4,30.44,South,174,0.0,2.0,77,0.00,,,0.00,Wunderground v.1.15,2013-01-10 22:57:00,
2013-01-10 18:02:00,27.2,21.5,30.44,South,173,0.0,0.0,79,0.00,,,0.00,Wunderground v.1.15,2013-01-10 23:02:00,
2013-01-10 18:07:00,26.8,21.5,30.44,South,174,0.0,0.0,80,0.00,,,0.00,Wunderground v.1.15,2013-01-10 23:07:00,
2013-01-10 18:12:00,26.6,21.6,30.43,South,173,0.0,0.0,81,0.00,,,0.00,Wunderground v.1.15,2013-01-10 23:12:00,
2013-01-10 18:17:00,26.2,21.5,30.44,East,95,1.0,1.0,82,0.00,,,0.00,Wunderground v.1.15,2013-01-10 23:17:00,
2013-01-10 18:22:00,26.5,21.7,30.43,East,96,2.0,2.0,82,0.00,,,0.00,Wunderground v.1.15,2013-01-10 23:22:00,
2013-01-10 18:27:00,26.5,21.5,30.44,NE,51,0.0,2.0,81,0.00,,,0.00,Wunderground v.1.15,2013-01-10 23:27:00,
2013-01-10 18:32:00,26.4,21.4,30.44,NE,53,0.0,1.0,81,0.00,,,0.00,Wunderground v.1.15,2013-01-10 23:32:00,
2013-01-10 18:37:00,26.3,21.6,30.44,NE,53,1.0,1.0,82,0.00,,,0.00,Wunderground v.1.15,2013-01-10 23:37:00,
2013-01-10 18:42:00,26.0,21.3,30.44,ESE,104,0.0,1.0,82,0.00,,,0.00,Wunderground v.1.15,2013-01-10 23:42:00,
2013-01-10 18:47:00,25.5,21.1,30.44,ESE,103,0.0,1.0,83,0.00,,,0.00,Wunderground v.1.15,2013-01-10 23:47:00,
2013-01-10 18:52:00,25.3,20.9,30.45,ESE,102,0.0,0.0,83,0.00,,,0.00,Wunderground v.1.15,2013-01-10 23:52:00,
2013-01-10 18:57:00,25.2,20.8,30.45,NNW,328,0.0,2.0,83,0.00,,,0.00,Wunderground v.1.15,2013-01-10 23:57:00,
2013-01-10 19:02:00,25.7,21.0,30.45,NW,305,1.0,3.0,82,0.00,,,0.00,Wunderground v.1.15,2013-01-11 00:02:00,
2013-01-10 19:07:00,26.1,21.4,30.45,West,271,1.0,3.0,82,0.00,,,0.00,Wunderground v.1.15,2013-01-11 00:07:00,
2013-01-10 19:12:00,25.9,20.6,30.45,NNW,342,2.0,2.0,80,0.00,,,0.00,Wunderground v.1.15,2013-01-11 00:12:00,
2013-01-10 19:17:00,26.6,21.3,30.45,NNW,332,0.0,2.0,80,0.00,,,0.00,Wunderground v.1.15,2013-01-11 00:17:00,
2013-01-10 19:22:00,26.7,21.1,30.45,West,276,1.0,2.0,79,0.00,,,0.00,Wunderground v.1.15,2013-01-11 00:22:00,
2013-01-10 19:27:00,26.3,20.7,30.45,NW,307,2.0,2.0,79,0.00,,,0.00,Wunderground v.1.15,2013-01-11 00:27:00,
2013-01-10 19:33:00,26.3,20.7,30.45,WNW,284,2.0,4.0,79,0.00,,,0.00,Wunderground v.1.15,2013-01-11 00:33:00,
2013-01-10 19:38:00,26.6,21.0,30.45,NW,311,2.0,5.0,79,0.00,,,0.00,Wunderground v.1.15,2013-01-11 00:38:00,
2013-01-10 19:43:00,26.6,20.7,30.45,NNW,330,2.0,2.0,78,0.00,,,0.00,Wunderground v.1.15,2013-01-11 00:43:00,
2013-01-10 19:48:00,26.4,20.5,30.46,NW,312,0.0,3.0,78,0.00,,,0.00,Wunderground v.1.15,2013-01-11 00:48:00,
2013-01-10 19:53:00,26.4,20.8,30.46,NW,322,1.0,3.0,79,0.00,,,0.00,Wunderground v.1.15,2013-01-11 00:53:00,
2013-01-10 19:58:00,26.3,20.7,30.45,NW,318,0.0,3.0,79,0.00,,,0.00,Wunderground v.1.15,2013-01-11 00:58:00,
2013-01-10 20:03:00,26.6,21.0,30.46,WNW,295,1.0,2.0,79,0.00,,,0.00,Wunderground v.1.15,2013-01-11 01:03:00,
2013-01-10 20:08:00,26.5,20.6,30.46,NW,308,3.0,3.0,78,0.00,,,0.00,Wunderground v.1.15,2013-01-11 01:08:00,
2013-01-10 20:13:00,26.4,20.8,30.46,NNW,347,0.0,4.0,79,0.00,,,0.00,Wunderground v.1.15,2013-01-11 01:13:00,
2013-01-10 20:18:00,26.1,20.5,30.46,NW,321,0.0,4.0,79,0.00,,,0.00,Wunderground v.1.15,2013-01-11 01:18:00,
2013-01-10 20:23:00,25.9,20.9,30.46,NW,312,0.0,2.0,81,0.00,,,0.00,Wunderground v.1.15,2013-01-11 01:23:00,
2013-01-10 20:28:00,25.5,20.2,30.46,NW,312,0.0,2.0,80,0.00,,,0.00,Wunderground v.1.15,2013-01-11 01:28:00,
2013-01-10 20:33:00,25.2,20.5,30.46,NW,322,1.0,1.0,82,0.00,,,0.00,Wunderground v.1.15,2013-01-11 01:33:00,
2013-01-10 20:38:00,25.0,20.3,30.47,NNE,27,0.0,1.0,82,0.00,,,0.00,Wunderground v.1.15,2013-01-11 01:38:00,
2013-01-10 20:43:00,24.9,20.5,30.47,NNE,27,0.0,0.0,83,0.00,,,0.00,Wunderground v.1.15,2013-01-11 01:43:00,
2013-01-10 20:48:00,24.4,20.0,30.47,NNE,27,0.0,0.0,83,0.00,,,0.00,Wunderground v.1.15,2013-01-11 01:48:00,
2013-01-10 20:53:00,24.3,20.2,30.47,NNE,27,0.0,1.0,84,0.00,,,0.00,Wunderground v.1.15,2013-01-11 01:53:00,
2013-01-10 20:59:00,24.3,20.4,30.47,SE,135,1.0,1.0,85,0.00,,,0.00,Wunderground v.1.15,2013-01-11 01:59:00,
2013-01-10 21:04:00,24.8,20.9,30.48,ESE,108,0.0,3.0,85,0.00,,,0.00,Wunderground v.1.15,2013-01-11 02:04:00,
2013-01-10 21:09:00,25.1,20.9,30.48,ESE,119,0.0,1.0,84,0.00,,,0.00,Wunderground v.1.15,2013-01-11 02:09:00,
2013-01-10 21:14:00,24.9,20.8,30.48,East,84,0.0,1.0,84,0.00,,,0.00,Wunderground v.1.15,2013-01-11 02:14:00,
2013-01-10 21:19:00,24.9,21.0,30.48,ENE,57,1.0,1.0,85,0.00,,,0.00,Wunderground v.1.15,2013-01-11 02:19:00,
2013-01-10 21:24:00,24.7,20.6,30.48,NW,322,0.0,2.0,84,0.00,,,0.00,Wunderground v.1.15,2013-01-11 02:24:00,
2013-01-10 21:29:00,24.7,20.8,30.49,WNW,295,0.0,1.0,85,0.00,,,0.00,Wunderground v.1.15,2013-01-11 02:29:00,
2013-01-10 21:34:00,24.4,20.3,30.49,WNW,295,0.0,1.0,84,0.00,,,0.00,Wunderground v.1.15,2013-01-11 02:34:00,
2013-01-10 21:39:00,24.0,20.1,30.48,WNW,295,0.0,0.0,85,0.00,,,0.00,Wunderground v.1.15,2013-01-11 02:39:00,
2013-01-10 21:44:00,23.7,20.1,30.49,East,96,1.0,1.0,86,0.00,,,0.00,Wunderground v.1.15,2013-01-11 02:44:00,
2013-01-10 21:49:00,23.6,20.3,30.49,East,93,0.0,0.0,87,0.00,,,0.00,Wunderground v.1.15,2013-01-11 02:49:00,
2013-01-10 21:54:00,23.4,19.8,30.49,East,93,0.0,0.0,86,0.00,,,0.00,Wunderground v.1.15,2013-01-11 02:54:00,
2013-01-10 21:59:00,23.0,19.7,30.49,East,93,0.0,0.0,87,0.00,,,0.00,Wunderground v.1.15,2013-01-11 02:59:00,
2013-01-10 22:04:00,22.8,19.8,30.49,East,93,0.0,0.0,88,0.00,,,0.00,Wunderground v.1.15,2013-01-11 03:04:00,
2013-01-10 22:09:00,22.5,19.5,30.49,East,93,0.0,0.0,88,0.00,,,0.00,Wunderground v.1.15,2013-01-11 03:09:00,
2013-01-10 22:15:00,22.3,19.3,30.49,East,93,0.0,0.0,88,0.00,,,0.00,Wunderground v.1.15,2013-01-11 03:15:00,
2013-01-10 22:20:00,22.1,19.4,30.50,East,93,0.0,0.0,89,0.00,,,0.00,Wunderground v.1.15,2013-01-11 03:20:00,
2013-01-10 22:25:00,22.0,19.3,30.50,East,93,0.0,0.0,89,0.00,,,0.00,Wunderground v.1.15,2013-01-11 03:25:00,
2013-01-10 22:30:00,21.9,19.2,30.50,East,93,0.0,0.0,89,0.00,,,0.00,Wunderground v.1.15,2013-01-11 03:30:00,
2013-01-10 22:35:00,21.6,18.9,30.50,East,93,0.0,0.0,89,0.00,,,0.00,Wunderground v.1.15,2013-01-11 03:35:00,
2013-01-10 22:40:00,21.6,18.9,30.50,East,93,0.0,0.0,89,0.00,,,0.00,Wunderground v.1.15,2013-01-11 03:40:00,
2013-01-10 22:45:00,21.6,18.9,30.50,East,93,0.0,0.0,89,0.00,,,0.00,Wunderground v.1.15,2013-01-11 03:45:00,
2013-01-10 22:50:00,21.4,18.7,30.50,East,93,0.0,0.0,89,0.00,,,0.00,Wunderground v.1.15,2013-01-11 03:50:00,
2013-01-10 22:55:00,21.3,18.6,30.50,East,93,0.0,0.0,89,0.00,,,0.00,Wunderground v.1.15,2013-01-11 03:55:00,
2013-01-10 23:00:00,21.2,18.5,30.49,East,93,0.0,0.0,89,0.00,,,0.00,Wunderground v.1.15,2013-01-11 04:00:00,
2013-01-10 23:05:00,21.1,18.4,30.49,East,85,1.0,2.0,89,0.00,,,0.00,Wunderground v.1.15,2013-01-11 04:05:00,
2013-01-10 23:10:00,21.0,18.0,30.49,NE,44,0.0,1.0,88,0.00,,,0.00,Wunderground v.1.15,2013-01-11 04:10:00,
2013-01-10 23:15:00,21.1,18.4,30.49,East,87,0.0,1.0,89,0.00,,,0.00,Wunderground v.1.15,2013-01-11 04:15:00,
2013-01-10 23:20:00,21.0,18.3,30.49,East,88,0.0,0.0,89,0.00,,,0.00,Wunderground v.1.15,2013-01-11 04:20:00,
2013-01-10 23:25:00,20.7,18.0,30.49,East,87,0.0,0.0,89,0.00,,,0.00,Wunderground v.1.15,2013-01-11 04:25:00,
2013-01-10 23:30:00,20.4,17.7,30.50,East,88,0.0,0.0,89,0.00,,,0.00,Wunderground v.1.15,2013-01-11 04:30:00,
2013-01-10 23:35:00,20.1,17.4,30.50,East,88,0.0,0.0,89,0.00,,,0.00,Wunderground v.1.15,2013-01-11 04:35:00,
2013-01-10 23:40:00,20.0,17.5,30.50,East,89,0.0,0.0,90,0.00,,,0.00,Wunderground v.1.15,2013-01-11 04:40:00,
2013-01-10 23:45:00,20.0,17.5,30.50,East,87,0.0,0.0,90,0.00,,,0.00,Wunderground v.1.15,2013-01-11 04:45:00,
2013-01-10 23:50:00,20.1,17.6,30.49,ESE,119,0.0,0.0,90,0.00,,,0.00,Wunderground v.1.15,2013-01-11 04:50:00,
2013-01-10 23:55:00,19.9,17.4,30.49,WNW,294,0.0,1.0,90,0.00,,,0.00,Wunderground v.1.15,2013-01-11 04:55:00,